Regional Weather Roundup
Issued by NWS

Home | Current Version | Previous Version | Graphics & Text | Print | Product List | Glossary On
Versions: 1 2 3 4 5 6 7 8 9 10 11 12 13 14 15 16 17 18 19 20 21 22 23 24 25 26 27 28 29 30 31 32 33 34 35 36 37 38 39 40 41 42 43 44 45 46 47 48 49 50
000
ASUS43 KLOT 240704
RWRIL

ILLINOIS REGIONAL WEATHER ROUNDUP
NATIONAL WEATHER SERVICE CHICAGO/ROMEOVILLE IL
200 AM CDT SAT JUN 24 2017

NOTE: "FAIR" INDICATES FEW OR NO CLOUDS BELOW 12,000 FEET WITH NO
SIGNIFICANT WEATHER AND/OR OBSTRUCTIONS TO VISIBILITY.

* THESE STATIONS ARE NOT UNDER NWS QUALITY CONTROL. THEY ALSO MAY NOT
  REPORT WEATHER SUCH AS PRECIPITATION OR FOG.

ILZ001-002-007-009-015-016-024-240800-
NORTHWEST ILLINOIS

CITY           SKY/WX    TMP DP  RH WIND       PRES   REMARKS
MOLINE         PTCLDY    65  55  70 W10       29.95F
STERLING*      CLEAR     61  56  83 W8        29.93F
$$

ILZ003-004-008-010-011-017-018-240800-
NORTH CENTRAL ILLINOIS

CITY           SKY/WX    TMP DP  RH WIND       PRES   REMARKS
ROCKFORD       CLEAR     62  56  80 W9        29.91R
$$

ILZ005-006-012>014-019>023-240800-
NORTHEAST ILLINOIS

CITY           SKY/WX    TMP DP  RH WIND       PRES   REMARKS
CHICAGO-OHARE  PTCLDY    66  54  65 W12       29.87R
CHICAGO-MIDWAY PTCLDY    66  55  67 W13       29.87S
AURORA         PTCLDY    61  57  87 W10       29.90S
LANSING*       CLEAR     64  53  66 NW7       29.88R
WAUKEGAN       PTCLDY    63  55  75 VRB3      29.85R
DUPAGE AIRPORT PTCLDY    63  57  81 W10       29.88S
WHEELING       PTCLDY    64  56  75 W9        29.88R
NORTHERLY ISL    N/A     67  53  61 W7          N/A
$$

LMZ740>746-240800-
SOUTHERN LAKE MICHIGAN

STATION/POSITION SKY/WX   TEMP    WIND        PRES    VSBY  WAVE
                          AIR SEA DIR/SP/G                  HT/PER
                          (F)     (DEG/KT/KT) (MB)    (MI)  (FT/S)
SOUTHERN BUOY              64 62  300/ 10/ 12 1009.4          2/ 4
WILMETTE HARBOR            65 64  260/ 10/ 14   N/A           1/ 3
HARRISON CRIB              68     290/ 14/ 15   N/A
BURNHAM HARBOR             67                   N/A
CALUMET HARBOR             67     290/  5/  9 1010.9S
BURNS HARBOR               68     300/ 13/ 15 1011.5R
MICHIGAN CITY              67     280/ 18/ 20   N/A
MICHIGAN CITY 6N           68 68  300/ 16/ 19   N/A           3/ 4
ST. JOSEPH                 67 68  330/ 16/ 19 1010.3R         3/ 3
$$

ILZ025>027-034>036-040-047-049-050-058-095>099-240800-
WEST-CENTRAL ILLINOIS

CITY           SKY/WX    TMP DP  RH WIND       PRES   REMARKS
QUINCY         PTCLDY    61  56  83 W5        30.00S
MACOMB*        PTCLDY    58  55  89 W7        30.00S
$$

ILZ028>032-037-038-041>044-048-051>054-059>061-240800-
CENTRAL ILLINOIS

CITY           SKY/WX    TMP DP  RH WIND       PRES   REMARKS
BLOOMINGTON    CLEAR     63  55  75 W9        29.96R
DECATUR        CLEAR     65  55  70 W10       29.96R
PEORIA         PTCLDY    64  56  75 W6        29.95R
SPRINGFIELD    CLEAR     62  58  86 W6        29.98R
TAYLORVILLE    NOT AVBL
$$

ILZ033-039-045-046-055>057-062-063-240800-
EAST-CENTRAL ILLINOIS

CITY           SKY/WX    TMP DP  RH WIND       PRES   REMARKS
CHAMPAIGN      CLEAR     59  55  87 W5        29.94R
MATTOON        PTCLDY    61  58  90 W7        29.94R
$$

ILZ079-100>102-240800-
SOUTHWEST ILLINOIS

CITY           SKY/WX    TMP DP  RH WIND       PRES   REMARKS
BELLEVILLE     CLOUDY    64  56  73 NW7       29.99R
CAHOKIA*       CLEAR     70  53  54 NW8       29.99R
SPARTA*        MOCLDY    68  55  62 N3        29.99S
$$

ILZ064>066-069>071-074>076-080>082-084>086-088>090-092>094-240800-
SOUTH-CENTRAL ILLINOIS

CITY           SKY/WX    TMP DP  RH WIND       PRES   REMARKS
CARBONDALE     MOCLDY    67  61  81 NW8       29.97R
MT. VERNON     MOCLDY    64  60  87 CALM      29.97R
CENTRALIA*     CLOUDY    66  60  79 NW3       29.97R
$$

ILZ067-068-072-073-078-083-087-091-240800-
SOUTHEAST ILLINOIS

CITY           SKY/WX    TMP DP  RH WIND       PRES   REMARKS
LAWRENCEVILLE  CLOUDY    65  61  87 NW7       29.93R
ROBINSON*      CLOUDY    64  59  85 NW3       29.94R
$$

ABBREVIATIONS USED IN REMARKS
   TC - TEMPERATURE IN CELSIUS
  WCI - WIND CHILL INDEX
   HX - HEAT INDEX
  VSB - VISIBILITY
$$





USA.gov is the U.S. government's official web portal to all federal, state and local government web resources and services.